Weather in Zhalainuoer

China     49°28′16″N   117°41′33″E
temp.,
°C
wind,
m/s
gust,
m/s
humid.,
%
clouds,
%
prec.,
mm/h
press.,
hPa
HPBL,
m
27 october, wed
wed2723:00+6w817447 0.0 1016410
02:00+3w49600 0.0 1016199
05:00+2wnw48700 0.0 1018157
08:00+2wnw48710 0.0 1019186
11:00+8nw57435 0.0 1019580
14:00+9nw56364 0.0 1019738
17:00+5nw22500 0.0 102114
20:00+3wnw11575 0.0 102210
28 october, thu
thu2823:00+2s22565 0.0 102210
02:00+2s33625 0.0 102217
05:00+1s33775 0.0 102235
08:00+2sse36735 0.0 1023124
11:00+7s57475 0.0 1020460
14:00+9ssw58355 0.0 1018573
17:00+6ssw22465 0.0 101810
20:00+4s22530 0.0 101810
29 october, fri
fri2923:00+3ssw11655 0.0 101810
02:00+2nnw11645 0.0 101810
05:00+1nnw3361100 0.0 101913
08:00+2n3360100 0.0 102148
11:00+6nne3446100 0.0 1021393
14:00+8nne6841100 0.0 1021856
17:00+6nne4849100 0.0 1024182
20:00+5nne71342100 0.0 1026633
30 october, sat
sat3023:00+3nne71354100 0.0 1028571
02:00+1nne61249100 0.0 1030468
05:000nne51149100 0.0 1031411
08:00−1nne4104976 0.0 1033388
11:00+3ne564054 0.0 1033615
14:00+5ne443028 0.0 1031802
17:00+1ne223817 0.0 103215
20:00−1nne114516 0.0 103310
31 october, sun
sun3123:00−2nw11440 0.0 103310
02:00−3wnw21404 0.0 103310
05:00−3wnw11370 0.0 103210
08:00−2wsw11330 0.0 103210
11:00+4sw23200 0.0 1031456
14:00+6ssw45220 0.0 1029663
17:00+1ssw44430 0.0 102953
20:00−1sw33480 0.0 102915